Nanaimo, British Columbia

6:43 AM PDT on July 21, 2017 (GMT -0700)
Nanaimo

Weather History for CYCD - December, 2013

Change the Weather History Date:

Sunday, December 1, 2013

  Actual Average Record
Temperature  
Mean Temperature 28 °F -  
Max Temperature 48 °F 43 °F 48 °F (1997)
Min Temperature 8 °F 31 °F 2 °F (2012)
Degree Days  
Heating Degree Days 37    
Moisture  
Dew Point 36 °F    
Average Humidity 79    
Maximum Humidity 95    
Minimum Humidity 54    
Precipitation  
Precipitation 0.02 in 0.26 in - ()
Sea Level Pressure  
Sea Level Pressure 29.85 in    
Wind  
Wind Speed 4 mph ()    
Max Wind Speed 8 mph    
Max Gust Speed -    
Visibility 16.5 miles    
Events Rain    
Averages and records for this station are not official NWS values.
T = Trace of Precipitation, MM = Missing Value Source: Averaged Metar Reports

Daily Weather History Graph

Daily Weather History Graph

Search for Another Location

Airport or City:

Trip Planner

Search our weather history database for the weather conditions in past years. The results will help you decide how hot, cold, wet, or windy it might be!

Date:

Astronomy

Dec. 01, 2013 Rise Set
Actual Time 7:48 AM PST 4:20 PM PST
Civil Twilight 7:12 AM PST 4:56 PM PST
Nautical Twilight 6:32 AM PST 5:36 PM PST
Astronomical Twilight 5:54 AM PST 6:14 PM PST
Moon 6:06 AM PST (12/1) 3:40 PM PST (12/1)
Length of Visible Light 9h 44m
Length of Day
8h 31m
Waning Crescent, 2% of the Moon is Illuminated
Dec 1
Waning Crescent
Dec 2
New
Dec 9
First Quarter
Dec 17
Full
Dec 25
Last Quarter

Hourly Weather History & Observations

Time (PST) Temp. Windchill Dew Point Humidity Pressure Visibility Wind Dir Wind Speed Gust Speed Precip Events Conditions
4:00 AM 8 °F - 7 °F 92% 30.29 in - NNW 1.2 mph - -  
6:00 AM 48.2 °F - 46.4 °F 93% 29.78 in 7.0 mi South 4.6 mph - N/A   Overcast
7:00 AM 46.4 °F 44.3 °F 44.6 °F 93% 29.78 in 10.0 mi WSW 4.6 mph - N/A   Mostly Cloudy
8:00 AM 46.4 °F 42.4 °F 44.6 °F 93% 29.77 in 15.0 mi South 8.1 mph - N/A   Mostly Cloudy
9:00 AM 46.4 °F - 44.6 °F 93% 29.80 in 15.0 mi Calm Calm - N/A   Mostly Cloudy
9:28 AM 46.4 °F 42.9 °F 44.6 °F 93% 29.81 in 5.0 mi West 6.9 mph - N/A Rain Light Rain Showers
9:52 AM 48.2 °F - 44.6 °F 87% 29.80 in 15.0 mi WNW 3.5 mph - N/A   Mostly Cloudy
10:00 AM 22 °F - 14 °F 59% 30.26 in - WSW 3.5 mph - -  
10:00 AM 48.2 °F - 44.6 °F 87% 29.81 in 15.0 mi West 3.5 mph - N/A   Mostly Cloudy
11:00 AM 48.2 °F - 46.4 °F 93% 29.80 in 15.0 mi South 3.5 mph - N/A   Mostly Cloudy
12:00 PM 53.6 °F - 44.6 °F 72% 29.78 in 20.0 mi ENE 5.8 mph - N/A   Scattered Clouds
1:00 PM 55.4 °F - 39.2 °F 54% 29.77 in 20.0 mi West 8.1 mph - N/A   Mostly Cloudy
1:52 PM 51.8 °F - 39.2 °F 62% 29.77 in 20.0 mi WNW 5.8 mph - N/A Rain Light Rain Showers
2:00 PM 51.8 °F - 41.0 °F 67% 29.77 in 20.0 mi West 3.5 mph - N/A Rain Light Rain Showers
3:00 PM 48.2 °F - 41.0 °F 76% 29.76 in 20.0 mi ESE 3.5 mph - N/A Rain Light Rain Showers
3:08 PM 48.2 °F - 41.0 °F 76% 29.75 in 20.0 mi ENE 4.6 mph - N/A   Mostly Cloudy
4:00 PM 14 °F - 13 °F 95% 30.29 in - Calm Calm - -  
4:00 PM 48.2 °F - 37.4 °F 66% 29.74 in 20.0 mi WNW 3.5 mph - N/A Rain Light Rain Showers
4:45 PM 42.8 °F 40.1 °F 37.4 °F 81% 29.74 in 20.0 mi South 4.6 mph - N/A   Scattered Clouds
5:00 PM 44.6 °F 42.2 °F 37.4 °F 76% 29.74 in 20.0 mi SW 4.6 mph - N/A   Scattered Clouds
6:00 PM 46.4 °F 43.5 °F 33.8 °F 62% 29.73 in 20.0 mi WSW 5.8 mph - N/A   Scattered Clouds
7:00 PM 42.8 °F 40.1 °F 35.6 °F 76% 29.71 in 25.0 mi WSW 4.6 mph - N/A   Scattered Clouds
8:00 PM 42.8 °F 39.3 °F 33.8 °F 70% 29.71 in 25.0 mi WSW 5.8 mph - N/A   Scattered Clouds
9:00 PM 41.0 °F 38.0 °F 33.8 °F 76% 29.71 in 25.0 mi WSW 4.6 mph - N/A   Mostly Cloudy
10:00 PM 21 °F - 18 °F 81% 30.28 in - NNE 6.9 mph - -